Weather in Orta-Stal

Russia / Republic of Dagestan     41°42′15″N   48°10′11″E
temp.,
°C
wind,
m/s
gust,
m/s
humid.,
%
clouds,
%
prec.,
mm/h
press.,
hPa
HPBL,
m
17 april, sat
sat1700:00+11sw11695 0.0 101911
03:00+10sw11684 0.0 101911
06:00+12sw11617 0.0 101911
09:00+18e22417 0.0 1018485
12:00+23e4437100 0.0 1016956
15:00+22ene424224 0.0 1016717
18:00+16nne245821 0.0 1018116
21:00+15w2254100 0.0 101919
18 april, sun
sun1800:00+15wnw225662 0.0 101819
03:00+14wnw0164100 0.0 101811
06:00+13se1171100 0.0 102047
09:00+15e2163100 0.0 1018370
12:00+18e3253100 0.0 1016855
15:00+18ne435445 0.1 1015788
18:00+15ne345776 0.0 1018144
21:00+13ssw116393 0.1 101814
19 april, mon
mon1900:00+12s1167100 0.0 101810
03:00+11nne2271100 0.0 101826
06:00+13sw227278 0.0 101747
09:00+18se235296 0.0 1017590
12:00+21e444374 0.0 1016999
15:00+20ene644484 0.0 1016825
18:00+16e225765 0.0 101684
21:00+13sse116940 0.0 101611
20 april, tue
tue2000:00+11wnw1171100 0.0 101711
03:00+11ssw1173100 0.0 101510
06:00+13sw1169100 0.0 101513
09:00+17e2254100 0.0 1013424
12:00+22ese444675 0.0 1010771
15:00+23e4347100 0.0 1007502
18:00+19nne226655 0.0 100631
21:00+15nnw1273100 0.0 100723
21 april, wed
wed2100:00+17w0159100 0.0 100617
03:00+13wnw0174100 0.0 100929
06:00+13n1576100 0.0 1013228
09:00+16n567059 0.0 1016768
12:00+19n676224 0.0 1016924
15:00+18n7963100 0.1 10171059
18:00+15n357686 0.8 1019265
21:00+11sw0092100 0.8 102010